Temp
19 18 18 20 19 19 19 20 20 20 20 20 20 20 21 21 21 21 22 21 21 20 20 20 20 20 19 18 18 17 17 17 16 16 17 16 16 17 17 17 17 16 16
20 19 18 20 21 20 20 20 20 20 20 20 20 20 21 21 21 21 21 21 21 21 20 20 20 20 19 19 18 17 17 16 17 17 16 16 17 17 17 16 16 16 16
20 20 19 19 20 20 20 20 21 20 20 20 20 20 21 21 21 21 21 21 21 21 21 20 20 19 19 19 19 18 18 17 17 17 17 17 17 17 16 16 16 16 15
20 20 20 19 19 20 19 18 18 18 19 19 19 19 20 20 21 21 20 21 21 21 21 20 20 20 19 19 19 19 18 18 17 17 17 17 17 16 16 15 16 15 14
21 20 19 19 20 19 19 17 17 17 18 18 18 18 20 19 20 19 19 20 20 20 20 20 20 20 19 19 18 18 18 18 17 17 17 17 16 16 15 15 16 15 14
21 20 19 19 20 18 17 17 17 17 17 18 18 19 18 18 18 19 19 19 19 20 20 20 20 20 19 18 18 18 18 17 17 17 17 17 16 16 15 15 15 15 13
21 20 19 20 20 18 19 18 17 17 17 16 17 19 19 19 19 19 19 19 19 19 20 20 20 19 19 19 18 18 17 17 17 17 17 17 16 16 15 15 15 14 13
20 21 21 19 19 18 18 17 17 17 17 16 19 19 21 22 19 19 20 19 19 19 19 20 20 20 19 18 18 18 17 17 17 17 17 17 16 15 14 14 14 13 12
19 21 20 18 18 19 18 19 17 17 19 17 17 20 21 22 20 19 19 19 19 18 19 19 19 19 19 18 18 19 18 17 17 16 16 16 16 15 14 14 14 12 9
18 18 19 20 20 19 19 19 18 18 18 19 17 17 19 19 22 23 20 19 18 18 18 18 18 19 20 20 19 19 19 18 17 16 15 16 16 15 14 13 13 12 10
18 17 17 18 18 18 18 18 17 17 18 19 19 19 18 18 18 20 21 22 19 20 20 21 20 19 20 20 19 19 19 18 17 15 15 16 15 14 14 13 12 11 8
17 17 17 17 17 17 18 17 17 17 17 18 19 18 19 20 20 18 20 20 21 20 19 20 21 21 20 21 20 20 19 18 16 15 14 14 14 13 12 11 10 9 8
17 17 16 16 17 17 17 17 17 17 17 17 17 18 18 18 19 19 18 19 18 18 17 19 19 20 20 19 19 19 18 17 16 13 12 11 11 11 11 11 9 7 6
18 17 17 17 17 17 17 17 17 17 17 17 17 17 17 17 17 17 17 17 17 17 17 17 19 19 19 19 19 18 17 16 15 12 11 11 11 10 8 9 8 7 5
18 18 18 18 17 17 17 17 17 17 17 17 17 17 17 17 16 16 16 17 17 18 20 19 18 19 19 19 19 18 15 15 13 12 11 13 10 9 9 8 7 5 5
18 17 17 17 17 17 17 17 17 17 17 17 17 17 16 16 16 16 16 16 16 17 18 19 18 18 18 18 17 16 14 14 12 11 11 10 7 8 7 6 7 5 4
17 17 17 17 18 19 20 18 19 17 16 17 18 17 17 17 16 16 17 17 16 16 17 18 17 16 16 15 14 12 11 11 11 10 9 7 6 6 6 5 5 4 3
14 15 15 15 15 16 16 16 17 19 17 16 16 18 20 23 18 16 16 17 16 16 16 17 16 15 14 14 13 11 9 9 9 9 8 5 4 4 5 4 3 3 2
14 14 14 14 14 14 15 16 16 17 17 16 17 18 19 19 16 16 18 16 16 16 16 16 15 13 11 10 9 7 7 8 8 7 5 4 4 4 3 3 2 2 1
15 15 15 15 15 14 14 14 14 15 15 16 16 16 16 16 16 17 16 16 16 16 16 15 13 11 10 9 8 6 5 5 5 4 3 3 3 2 2 2 2 2 1
13 13 14 15 15 15 15 14 14 14 14 14 14 15 16 16 16 17 17 16 16 16 15 14 11 9 8 7 7 6 4 3 2 2 2 2 2 2 2 1 0 -0 0
12 13 13 14 14 14 14 14 14 14 14 13 13 14 14 14 15 15 15 15 15 15 14 13 11 9 9 8 7 5 3 1 1 1 2 1 1 0 1 -0 -0 -0 -1
11 11 11 12 12 13 14 14 14 14 14 14 13 13 13 14 14 14 14 14 14 14 14 14 12 11 11 11 9 5 4 3 2 1 2 -1 -0 -0 -0 -1 -1 -1 0
9 9 10 10 10 12 13 13 13 12 12 12 12 12 11 11 11 12 12 12 13 13 13 12 12 13 13 12 10 9 4 2 2 1 1 -1 -1 -1 -1 -2 -1 0 0
7 8 8 9 9 11 12 12 11 11 12 13 12 12 10 10 9 10 10 11 11 11 11 11 11 10 10 10 9 6 2 1 -1 -1 -0 -1 -2 -2 -2 -2 -1 -1 0
4 4 6 7 8 9 11 11 11 10 11 12 12 12 10 8 8 9 9 10 9 9 8 9 8 8 7 7 6 6 4 2 -1 -1 -0 -1 -2 -2 -2 -3 -2 -2 -4
Height
833 836 839 841 843 846 848 850 852 854 856 857 858 860 861 861 861 862 862 863 864 865 867 868 868 869 869 869 870 871 872 872 872 871 871 870 869 869 868 867 865 864 862
829 832 835 838 840 842 845 847 849 851 853 855 856 857 858 858 859 859 860 860 861 862 863 864 865 866 867 867 867 868 869 870 869 869 868 868 867 866 865 864 863 861 858
824 828 832 834 837 839 842 844 846 848 850 851 852 853 854 854 855 856 857 857 858 858 859 860 861 863 864 864 864 864 865 865 865 865 865 864 863 862 862 861 860 858 856
820 824 827 830 834 837 840 842 843 845 846 847 848 849 850 851 851 852 853 853 854 855 856 856 858 859 860 861 861 861 860 861 861 861 861 861 861 860 859 858 857 855 853
816 820 823 826 830 833 835 839 841 842 844 845 846 847 847 847 847 849 849 850 851 852 853 854 855 855 856 856 857 857 857 857 857 857 857 857 858 857 856 855 853 851 850
810 814 818 822 825 829 832 834 837 839 841 843 843 843 843 842 843 843 844 845 847 847 849 850 850 851 851 852 852 852 853 853 853 853 853 854 853 853 852 851 849 847 846
804 808 812 815 819 823 825 828 832 835 838 840 842 840 838 836 836 837 839 840 841 842 843 844 846 846 846 846 848 847 847 848 848 849 849 849 848 848 846 845 846 844 842
796 800 803 806 810 815 819 823 826 830 833 836 838 840 835 831 829 830 831 833 834 836 837 838 839 839 841 841 841 841 843 843 842 842 843 845 845 845 845 843 842 840 837
788 791 796 801 804 808 811 814 819 824 828 830 832 835 833 828 828 825 825 827 829 831 832 833 832 833 833 834 835 835 836 837 837 838 838 839 841 840 841 840 838 837 836
781 785 789 792 796 800 803 806 812 817 821 824 828 829 830 830 826 823 823 822 823 824 826 828 828 827 827 826 826 826 827 829 830 830 832 833 834 835 834 836 833 832 831
774 780 784 787 790 793 798 802 806 808 813 817 818 822 824 826 827 828 820 820 821 818 820 820 819 819 818 818 817 817 818 820 822 824 825 826 828 830 829 828 827 828 827
766 770 776 782 786 790 792 795 800 804 807 809 813 815 817 820 821 824 821 815 815 814 813 814 813 811 810 809 807 808 809 811 812 814 819 822 822 825 826 824 823 822 821
759 763 771 777 780 783 787 790 794 797 801 806 808 811 812 813 816 818 819 814 816 810 811 804 802 803 801 801 800 801 802 803 806 809 815 819 823 820 820 818 820 819 816
757 761 764 768 773 776 779 784 789 793 793 798 800 802 804 804 807 810 809 811 811 800 808 797 796 793 791 789 792 793 795 798 798 800 803 808 810 811 816 814 814 813 813
751 753 755 759 763 769 774 777 780 786 788 792 794 796 797 796 799 799 801 803 806 801 796 791 788 783 781 781 783 785 786 787 790 791 794 798 797 800 805 808 810 810 806
745 747 751 755 757 759 763 770 776 780 782 784 785 788 789 791 793 794 794 795 797 793 792 783 783 776 773 775 777 779 779 782 786 787 792 792 799 800 801 804 801 805 804
741 742 744 747 752 753 754 756 758 764 774 769 781 775 779 780 781 783 788 785 788 788 784 779 778 773 768 768 771 777 778 780 780 785 787 787 792 792 800 800 800 801 801
739 741 743 746 748 750 749 750 749 741 757 760 768 762 763 762 769 774 776 770 775 778 774 771 768 766 762 764 766 770 772 776 782 785 780 788 791 794 797 795 797 797 797
747 746 744 743 744 744 743 745 742 739 747 753 759 756 750 752 761 762 763 762 767 767 764 761 760 758 757 759 762 768 770 771 777 782 783 785 787 785 794 795 795 792 794
749 747 747 745 742 741 740 739 742 742 737 744 747 745 749 752 753 753 754 754 756 756 755 754 752 752 753 755 759 764 767 771 772 777 778 779 784 784 785 789 792 787 787
753 752 749 746 743 742 742 742 742 740 739 741 742 743 744 745 746 747 748 746 745 746 748 748 747 747 748 752 753 754 763 766 769 768 773 778 776 781 782 787 788 788 783
753 750 750 748 744 742 741 740 739 738 739 741 742 740 739 738 738 739 739 739 739 738 737 738 738 738 737 741 744 749 754 762 767 768 770 775 777 781 779 784 787 784 785
753 751 750 748 745 744 741 739 739 738 738 738 738 736 734 732 732 733 733 731 729 730 729 729 727 729 731 732 735 739 743 749 755 760 766 771 775 776 779 783 785 782 780
750 750 748 746 743 740 739 738 737 735 735 735 733 732 729 726 728 726 727 725 721 720 721 721 722 723 725 727 728 731 736 745 753 756 763 767 771 774 780 782 783 779 776
747 744 745 742 738 734 732 731 731 731 729 727 726 725 723 720 720 717 717 716 718 717 715 713 715 717 721 722 725 728 735 740 752 757 759 760 768 775 780 781 779 778 775
742 738 738 734 731 729 728 727 725 726 724 720 721 718 717 718 716 712 711 710 712 712 711 707 711 713 715 720 723 724 728 734 740 755 757 760 765 769 777 779 780 777 776
Wind_Speed
26 24 22 26 24 23 23 23 22 21 21 21 20 19 17 16 15 15 16 14 16 16 16 13 12 10 10 11 12 12 12 11 11 11 11 10 10 10 10 12 13 14 16
28 26 24 26 26 25 23 22 22 22 21 20 20 20 18 17 17 15 15 16 16 16 17 16 15 11 10 10 11 12 14 13 12 12 12 11 11 10 12 12 13 15 17
31 29 25 24 25 24 23 23 23 22 20 20 20 19 20 20 19 18 17 18 16 17 17 18 17 14 12 9 10 12 14 14 14 14 13 12 12 12 11 12 14 16 16
32 31 28 26 24 24 22 21 20 20 20 19 18 19 19 19 21 22 20 19 18 18 18 20 19 17 15 12 12 14 14 15 15 15 14 13 13 12 11 12 14 15 16
34 32 28 26 27 24 24 20 18 19 17 18 17 18 21 20 20 18 20 20 20 19 17 18 21 21 20 19 19 18 18 17 16 16 15 14 13 13 13 14 15 16 15
36 35 29 28 28 25 22 20 20 18 16 15 14 16 17 19 18 19 20 20 19 23 22 22 22 24 25 24 23 21 21 20 19 18 16 15 15 14 14 15 16 16 15
37 36 32 31 30 25 27 24 21 18 17 14 10 14 19 22 24 21 20 20 20 22 24 24 24 20 21 27 26 25 24 24 22 20 18 17 17 15 15 15 16 16 14
39 40 41 33 33 28 27 25 25 17 17 14 9 8 5 9 13 21 22 23 25 22 22 26 27 27 25 21 28 29 28 27 26 24 20 19 18 16 16 17 16 15 13
40 43 42 35 33 35 30 32 27 23 18 15 19 12 3 6 2 5 12 18 20 20 22 22 26 28 29 27 29 31 31 31 31 28 24 20 19 17 18 18 16 14 13
40 40 44 44 43 40 38 35 29 26 24 20 13 22 23 10 5 5 4 8 11 14 19 21 24 27 28 30 33 35 34 34 34 32 29 23 21 20 18 19 15 14 13
39 36 37 38 41 39 32 32 27 29 27 27 24 16 20 24 22 17 12 17 15 22 22 22 22 25 29 33 35 37 37 36 36 37 33 26 24 22 20 18 15 14 12
31 37 35 36 34 33 32 30 28 27 30 28 27 24 23 14 16 16 12 19 19 20 25 27 30 31 32 33 36 39 38 39 39 40 34 28 23 21 20 17 14 12 11
28 28 30 28 29 33 30 28 26 27 25 26 24 25 23 27 25 18 15 17 8 14 18 28 35 39 38 35 34 38 38 38 38 39 33 23 21 21 20 17 15 12 11
22 21 27 34 36 32 32 25 26 26 23 25 25 27 28 26 25 27 27 18 7 10 21 21 25 28 30 32 36 36 34 38 37 39 34 25 24 26 22 16 15 14 13
23 26 28 30 30 26 24 22 22 24 22 26 29 28 28 32 26 28 30 28 20 6 13 22 19 20 20 25 32 34 32 35 35 41 35 28 32 25 20 18 15 14 13
23 24 23 23 23 22 20 14 14 18 21 23 23 22 22 29 27 28 31 29 27 28 15 28 21 27 23 23 27 30 29 31 33 37 32 30 22 18 19 16 12 14 14
15 21 26 26 19 19 19 21 19 20 27 28 34 23 26 26 28 25 29 26 29 33 21 31 25 24 19 20 20 21 25 25 30 35 33 22 20 19 16 11 10 11 11
10 5 8 16 19 22 19 22 25 21 35 34 46 36 48 34 34 37 38 30 33 34 30 26 20 22 18 20 21 22 22 26 29 28 25 18 15 13 10 7 8 7 11
17 14 11 6 1 1 6 14 16 21 29 38 41 32 24 31 40 37 39 29 30 31 30 26 17 16 18 18 18 19 23 26 24 21 18 16 14 8 6 5 6 8 12
14 13 12 12 12 11 8 6 5 7 12 23 29 30 29 32 34 31 31 30 29 27 27 23 16 14 15 12 18 21 19 21 20 19 18 15 9 8 7 4 8 8 9
11 8 7 7 8 8 9 8 6 6 9 11 15 18 22 26 29 30 29 26 26 26 24 19 13 10 11 11 19 19 15 21 20 22 19 15 13 10 5 6 7 6 9
12 8 8 7 7 7 7 6 7 6 6 9 12 12 14 17 19 21 22 24 24 24 26 21 17 12 21 18 18 22 23 13 5 21 22 14 12 10 7 5 5 6 13
16 14 13 11 11 10 9 7 5 5 7 9 11 13 15 16 16 19 21 20 19 20 26 28 19 25 23 29 27 26 26 18 11 22 23 15 14 11 8 5 2 7 15
17 17 17 16 16 14 13 12 10 9 9 10 10 11 12 13 16 16 18 18 18 18 19 21 27 28 25 21 23 26 25 21 17 27 20 6 15 10 11 7 3 11 12
19 17 19 19 19 20 17 16 16 14 14 14 14 14 14 14 15 13 14 16 17 18 17 19 23 21 19 17 22 23 28 27 7 10 17 8 15 13 11 6 7 8 10
22 21 25 22 20 22 22 21 21 18 17 17 18 18 15 14 14 14 15 18 19 18 14 10 12 15 16 18 21 22 31 24 15 5 17 8 19 11 6 6 9 12 13
Wind_Direction
193 192 193 194 192 195 197 200 203 207 212 218 223 226 230 233 232 232 231 229 226 229 230 238 244 246 246 246 246 246 251 249 252 258 265 272 277 289 290 299 307 313 315
200 199 200 202 202 201 203 205 209 212 217 222 228 233 234 236 233 234 234 232 233 231 232 233 235 240 243 247 244 234 241 242 250 257 264 271 281 284 293 299 308 315 318
206 205 204 207 208 208 209 211 214 219 224 228 232 234 238 239 237 237 237 238 236 233 233 231 233 233 233 245 250 239 238 242 249 257 263 273 275 279 287 299 308 315 317
210 210 211 214 212 213 214 216 216 219 224 230 236 239 241 244 245 244 243 244 240 237 239 236 234 234 231 242 251 247 241 243 250 255 262 266 269 278 285 298 312 317 319
214 213 215 218 218 218 219 220 223 224 227 232 238 245 248 250 251 250 246 248 247 244 244 244 241 239 236 236 237 243 243 244 250 256 259 257 266 277 285 306 314 316 314
217 217 218 221 222 220 223 223 226 232 235 242 247 252 252 253 253 251 249 248 248 250 250 247 245 241 239 240 241 243 245 248 252 255 255 255 263 274 285 302 307 310 312
220 219 220 223 223 221 226 227 228 232 240 242 256 265 264 258 253 248 247 246 246 247 248 247 247 244 244 242 244 245 244 247 253 256 252 252 260 271 280 295 303 307 308
222 222 224 222 222 220 225 226 224 223 235 226 234 253 279 269 249 244 242 242 243 242 243 247 247 248 246 240 242 246 246 246 250 254 253 255 264 276 285 295 302 303 308
224 225 226 223 224 223 224 227 224 217 228 229 219 230 226 240 294 229 239 242 244 243 244 245 248 249 247 244 243 249 248 246 250 253 253 255 262 272 283 291 301 303 301
226 228 228 229 230 231 228 229 227 223 224 229 228 232 242 257 273 277 238 256 251 247 247 248 251 253 249 248 248 249 249 246 245 247 247 254 257 265 275 285 296 297 294
227 227 228 227 229 230 231 227 224 223 225 228 230 227 236 243 248 254 271 261 262 258 259 258 251 249 252 252 250 249 248 246 243 240 243 250 252 261 272 274 284 291 293
224 224 225 227 229 229 230 230 228 230 230 232 233 231 231 236 243 239 250 261 259 258 253 255 256 258 259 255 253 254 251 246 241 240 238 245 248 257 267 275 281 283 289
214 218 219 223 226 232 232 230 228 230 232 235 237 240 240 241 250 254 251 271 276 282 276 258 258 258 257 258 254 255 253 247 241 229 226 234 252 258 262 270 280 280 286
223 213 220 227 234 230 230 228 231 236 232 236 237 240 243 244 238 239 240 245 259 227 267 255 266 257 256 260 261 260 252 250 235 219 222 227 246 258 259 269 272 281 287
220 217 223 232 228 223 224 224 228 234 235 242 254 250 246 253 245 240 240 242 244 271 265 268 243 265 269 270 263 259 249 245 230 221 222 234 240 237 246 256 269 280 282
219 214 210 209 204 197 196 212 241 252 244 243 241 252 252 259 254 249 251 250 244 246 252 258 263 262 263 261 258 252 245 246 233 220 221 236 224 236 237 246 268 276 281
175 192 194 191 202 213 221 223 230 235 244 247 258 243 257 263 261 255 256 260 257 242 250 253 253 257 260 258 254 246 244 238 219 221 229 222 221 222 235 258 274 278 287
69 88 235 251 249 254 253 248 232 225 238 241 248 253 256 272 270 260 249 254 246 239 237 253 248 246 250 252 245 235 230 223 224 224 219 216 214 223 249 258 273 282 295
59 52 44 49 54 227 223 227 233 223 233 228 244 236 237 222 243 243 253 244 243 243 245 248 247 233 234 233 226 224 225 219 221 220 207 201 205 208 238 256 259 292 296
33 38 37 39 39 25 360 341 297 264 222 237 246 245 241 237 238 246 245 243 249 250 244 239 230 216 221 222 216 204 199 208 197 193 188 186 184 188 190 240 265 266 288
7 2 9 15 20 18 21 16 359 303 290 274 256 243 243 250 253 253 250 250 246 241 238 231 211 196 196 181 208 203 184 186 178 184 178 179 183 201 202 212 237 275 309
342 334 318 316 324 325 335 344 349 346 318 288 274 266 258 254 254 259 263 267 264 244 223 214 217 207 218 216 206 187 161 154 182 192 182 172 183 180 166 193 244 312 330
338 321 302 288 287 284 290 291 298 302 304 303 298 290 277 265 260 261 260 264 266 260 244 239 219 222 223 233 220 185 187 183 177 178 177 162 175 165 167 184 273 334 335
328 327 315 299 284 278 279 268 278 283 283 286 284 281 278 274 261 255 262 262 258 256 252 243 242 253 254 242 228 219 193 167 160 170 171 129 164 157 165 169 335 346 341
319 315 312 303 295 284 280 278 275 277 284 294 295 287 283 286 277 262 255 253 251 246 244 239 238 237 239 231 218 196 165 149 132 175 179 132 159 146 156 111 32 16 30
312 311 303 303 300 291 278 269 263 267 276 289 294 295 286 282 279 255 242 234 229 231 223 218 210 197 195 199 207 207 184 160 128 134 182 136 155 149 129 86 62 58 45